Regional Weather Roundup
Issued by NWS Jackson, KY

Home | Current Version | Previous Version | Text Only | Print | Product List | Glossary Off
Versions: 1 2 3 4 5 6 7 8 9 10 11 12 13 14 15 16 17 18 19 20 21 22 23 24 25 26 27 28 29 30 31 32 33 34 35 36 37 38 39 40 41 42 43 44 45 46 47 48 49 50

000
ASUS43 KJKL 272110
RWRJKL

EAST KENTUCKY HOURLY WEATHER ROUNDUP
NATIONAL WEATHER SERVICE JACKSON KY
500 PM EDT THU AUG 27 2015

NOTE: "FAIR" INDICATES FEW OR NO CLOUDS BELOW 12,000 FEET WITH
NO SIGNIFICANT WEATHER AND/OR OBSTRUCTIONS TO VISIBILITY.

* THESE REPORTS ARE NOT UNDER NWS QUALITY CONTROL AND MAY NOT
  REPORT WEATHER SUCH AS PRECIPITATION AND FOG.

KYZ079-080-083-085-087-088-110-112-115-119-120-272200
...EASTERN KENTUCKY...

CITY           SKY/WX    TMP DP  RH WIND       PRES   REMARKS
JACKSON          N/A     74  55  51 CALM      30.12F
LONDON           N/A     78  52  40 E8        30.11S
SOMERSET*        N/A     77  52  41 CALM      30.12R
MONTICELLO*      N/A     80  56  43 NE3       30.13S
MIDDLESBORO*     N/A     80  61  52 N7        30.08S
HAZARD APT*    CLEAR     75  57  53 NE3       30.11S
BLACK MTN*       N/A     66  57  72 VRB3        N/A
PIKEVILLE APT* SUNNY     72  57  60 N5        30.13F
BIG SANDY*       N/A     73  57  56 N3        30.13S
MOREHEAD APT*  MOCLDY    75  54  46 VRB7      30.15S
$$

KYZ035-036-041-042-044-050-067-078-099-272200
...CENTRAL KENTUCKY...

CITY           SKY/WX    TMP DP  RH WIND       PRES   REMARKS
MT STERLING*   PTSUNNY   75  54  46 NE6       30.15R
FLEMING/MASON* PTSUNNY   72  55  56 E6        30.15S
DANVILLE*        N/A     77  55  47 NE7       30.13S
RICHMOND*        N/A     77  54  44 NE7       30.12R
LEXINGTON        N/A     74  53  48 NE8       30.14R
FRANKFORT      CLOUDY    75  54  47 N7        30.13R
$$

KYZ091>093-OHZ055-061-077-WVZ005-015-034-035-042-272200
...SOUTHERN OHIO/WEST VIRGINIA...

CITY           SKY/WX    TMP DP  RH WIND       PRES   REMARKS
COVINGTON      CLOUDY    75  54  47 NE3       30.15R
COLUMBUS         N/A     76  54  46 E7        30.13S
DAYTON         PTSUNNY   76  53  44 CALM      30.16S
WILMINGTON       N/A     73  54  51 S3        30.15R
HUNTINGTON       N/A     77  54  44 N7        30.11S
CHARLESTON       N/A     75  54  47 NE5       30.11F
PINEVILLE*       N/A     78  59  52 MISG      30.16S
BECKLEY          N/A     74  53  48 VRB6      30.15F
BLUEFIELD      PTSUNNY   76  53  44 NE5       30.16F
$$

VAZ002-007-008-TNZ017-027-036-066-071-272200
...SOUTHWEST VIRGINIA/EAST TENNESSEE...

CITY           SKY/WX    TMP DP  RH WIND       PRES   REMARKS
WISE*            N/A     72  54  53 N6        30.16
JONESVILLE*      N/A     77  32  19 CALM      30.09F
ABINGDON*        N/A     81  53  38 NE5       30.10F
BRISTOL          N/A     79  55  43 NW5       30.07F
KNOXVILLE        N/A     85  59  41 E9        30.03F
OAK RIDGE        N/A     84  59  42 CALM      30.06F
CROSSVILLE       N/A     77  59  53 NE7       30.11R
NASHVILLE        N/A     83  52  34 NE8       30.08F
$$

...KEY TO REMARKS...
VSB - VISIBILITY IN MILES
WCI - WIND CHILL INDEX
HX  - HEAT INDEX

$$


USA.gov is the U.S. government's official web portal to all federal, state and local government web resources and services.